Orbital Elements at Epoch 2459200.5 (2020-Dec-17.0) TDB
Reference: JPL 21 (heliocentric ecliptic J2000)
Element | Value | Uncertainty (1-sigma) | Units |
e | .08856169664629368 | 4.6487e-08 | |
a | 2.283963846550064 | 1.2573e-08 | au |
q | 2.081692133220795 | 1.0424e-07 | au |
i | 5.234569429857396 | 5.67e-06 | deg |
node | 203.5107508325972 | 4.7078e-05 | deg |
peri | 223.4387151743016 | 5.6704e-05 | deg |
M | 115.9398274162684 | 3.0147e-05 | deg |
tp | 2458794.465989038702 (2019-Nov-06.96598904) | 0.00010525 | TDB |
period | 1260.759544011163 3.45 | 1.041e-05 2.85e-08 | d yr |
n | .2855421572734195 | 2.3578e-09 | deg/d |
Q | 2.486235559879332 | 1.3686e-08 | au |
|
| | Orbit Determination Parameters
Additional Information
|